DELTA 1 DEB

Satellite information

Favourite Embed

Satellite Type and Status

DEBRISIN ORBIT

Key statistics

Satellite DELTA 1 DEB at a glance.

Uptime

19037

Days in orbit

Revolutions

≈ 12.6

Per day

Orbit

SSO

Sun Synchronous Orbit

Inclination

101.8

Latest

Satellite identification and parameters

Extended collection of information and parameters for DELTA 1 DEB.

Object identification

Identified? True

Debris? True

Object name: DELTA 1 DEB

International designator: 1973-086CA

Object number (NORAD): 7082

Object ID (CCSDS): 7082

Country: UNITED STATES OF AMERICA (US)

Current information (Y/N): Y

RCS size: MEDIUM

Orbital parameters

Period: 114.13 minutes

Inclination: 101.786 deg

SMA: 7793.98 km

Apoapsis: 1443.302 km

Periapsis: 1388.387 km

RAAN: 223.3833 deg

Eccentricy: 0.00352295

Argument of periapsis: 287.3427 deg

Mean anomaly: 91.3027 deg

Mean motion: 12.61722564 rev/day

Mean motion (dot): 0.00000327 rev/day2

B* drag term: 0.002099545 1/REarth

Two-line elements (TLE)

Creation date: Dec. 20, 2025, 3:40 a.m.

Reference frame: TEME

Reference center: EARTH

Epoch: Dec. 19, 2025, 8:55 p.m. UTC

TLE line 0: 0 DELTA 1 DEB

TLE line 1: 1 07082U 73086CA 25353.87175115 .00000327 00000-0 20995-2 0 9993

TLE line 2: 2 07082 101.7860 223.3833 0035230 287.3427 91.3027 12.61722564386153

Live tracking on map

Real-time ground track for satellite DELTA 1 DEB.

In-orbit conjunctions

A list of the most updated potential collisions computed for object DELTA 1 DEB.

Target Orbit TCA Probability of collision Miss distance Type
DELTA 1 R/B SSO 2024-10-20 20:13:33 0.0001202805 653.0 (m) ROCKET BODY
OSCAR 5 SSO 2024-10-11 13:00:14 0.0003146974 167.0 (m) PAYLOAD

Associated space launch

Meteorological satellite using radiometric imaging

DELTA 1 DEB was lifted into orbit during the mission ‘Delta 0300 | NOAA 3’, on board a Delta 0300 space rocket.

The launch took place on Nov. 6, 1973, 5:02 p.m. from Space Launch Complex 2W.

For more information about the launch, click the button.

Launch to space Delta 0300 | NOAA 3
Delta 0300 | NOAA 3

Agency: N/A

Status: Launch Successful

Launch date: Nov. 6, 1973, 5:02 p.m. UTC

Rocket: Delta 0300

Launch pad: Space Launch Complex 2W

Location: Vandenberg SFB, CA, USA

...

Latest news about this satellite

There are no fresh news available about this satellite. Check back as we update our databases every day.


Newsletter sign-up

Weekly statistics, charts and insights to help you stay on top of the space industry.